Meath Environmental Platform

Observations

Time Sensor AQI SAQ Temp °C Hum % Pres Pa CO μg/m³ H₂S μg/m³ NO μg/m³ NO₂ μg/m³ O₃ μg/m³ SO₂ μg/m³ CO₂e PPM VOC PPM PM1 μg/m³ PM2.5 μg/m³ PM4 μg/m³ PM10 μg/m³ TPS µm
Tuesday 11 August 2026
18:49 Trim Market St 3 30.9 27 66,244 0 15.29 0.51 27.4 64.33 0 2.14 5.61 6.17
18:48 Trim Patrick St 3 34.8 25 69,565 0 36.13 0.23 19.01 78.79 26.84 4.57 12.06 13.27
18:48 Trim Market St 3 30.9 27 66,264 0 14.16 0.51 26.19 63.52 0 2.14 5.61 6.17
18:47 Trim Market St 3 30.9 27 66,262 0 14.91 0.49 22.4 64.92 0 1.43 4.52 4.98
18:46 Trim Market St 3 30.9 27 66,290 0 16.47 0.5 27 64.03 0 2.14 5.08 5.58
18:45 Trim Market St 3 31 27 66,292 0 16.62 0.47 25.48 63.6 0 0.71 5.08 5.58
18:45 Trim Patrick St 3 34.6 25 69,567 0 39.9 0.31 27.46 94.3 26.9 2.86 9.65 10.61
18:44 Trim Market St 3 31 27 66,297 0 17.16 0.49 27.94 63.85 0 1.43 4.53 4.99
18:44 Trim Patrick St 3 34.7 24 69,575 0 39.92 0.34 18.47 106.07 28.64 3.71 11.29 12.42
18:43 Trim Market St 3 31 27 66,303 0 19.42 0.49 32.36 62.42 0 1.43 4.54 4.99
18:43 Trim Patrick St 3 34.7 24 69,585 0 36.54 0.6 21.79 85.28 27.57 4.57 10.48 11.53
18:42 Trim Market St 3 31 27 66,307 0 18.58 0.49 27.06 63.63 0 2.14 4.54 5
18:42 Trim Patrick St 3 34.8 24 69,604 0 35.78 0.5 15.7 110.2 29.19 4.57 11.33 12.46
18:41 Trim Market St 3 31.1 27 66,315 0 20.91 0.48 32.3 61.79 0 2.85 5.64 6.64
18:41 Trim Patrick St 3 35 24 69,624 0 31.31 0.54 17.17 86.23 28.15 4.57 11.35 12.49
18:40 Trim Market St 3 31.1 27 66,325 0 21.67 0.49 32.1 62.7 0 2.14 5.1 5.61
18:40 Trim Patrick St 3 35.2 24 69,648 0 31.02 0.53 15.97 100.74 28.7 2.86 10.53 11.58
18:39 Trim Market St 3 31.1 26 66,307 0 21.5 0.48 30.16 62.29 0 1.43 5.65 6.22
18:39 Trim Patrick St 3 35.3 24 69,626 0 36.77 0.58 17.8 108.87 29.44 2.86 9.72 10.7
18:38 Trim Market St 3 31.2 26 66,311 0 23.27 0.5 35.67 61.24 0 1.43 5.11 5.62